View from above orbital plane
|
View from above satellite
|
Ground track
|
The orbit data is extracted from the following two-line orbital elements,
1 31114U 07010B 21016.48447068 .00000041 00000-0 37587-4 0 9998
2 31114 98.2379 220.8032 0059891 7.1672 353.0348 14.19344703713229
Epoch (UTC): | 16 January 2021 11:37:38 |
Eccentricity: | 0.0059891 |
inclination: | 98.2379° |
perigee height: | 784 km |
apogee height: | 871 km |
right ascension of ascending node: | 220.8032° |
argument of perigee: | 7.1672° |
revolutions per day: | 14.19344703 |
mean anomaly at epoch: | 353.0348° |
orbit number at epoch: | 71322 |
The dashed part of the orbit path shows where the satellite is in the earth's shadow,
|
|